Home > Weather > Strasbourg > Past weeks

Flag for France Past Weather in Strasbourg, Alsace, France — Yesterday and Last 2 Weeks

Now
66 °F

Mostly cloudy.


Feels Like: 66 °F
Forecast: 62 / 79 °F
Wind: 6 mph from Southwest

Location: Strasbourg Airport

Current Time: Jul 1, 2016 at 1:07:40 AM

Latest Report: Jul 1, 2016 at 12:30 AM


Visibility: N/A

Pressure: 30.04 "Hg

Humidity: 78%

Dew Point: 59 °F

Location of StrasbourgLocation

Past Weather in Strasbourg — Graph

°F

Strasbourg Temperature Yesterday

Maximum temperature yesterday: 79 °F (at 5:00 PM)
Minimum temperature yesterday: 63 °F (at 12:00 AM)
Average temperature yesterday: 70 °F

High & Low Weather Summary for the Past Weeks

 TemperatureHumidityPressure
High93 °F (Jun 23, 4:30 PM)100% (Jun 16, 2:30 AM)30.27 "Hg (Jun 16, 2:30 AM)
Low50 °F (Jun 20, 4:30 AM)42% (Jun 29, 3:30 PM)29.59 "Hg (Jun 16, 2:00 AM)
Average66 °F76%30.04 "Hg
* Reported Jun 15 11:00 PM — Jun 30 11:30 PM, Strasbourg, Weather by CustomWeather, © 2016

Note: Actual official high and low records may vary slightly from our data, if they occured in-between our weather recording intervals... More about our weather records

Advertising

Strasbourg Weather History for the Previous 24 Hours

Scroll right to see more
 ConditionsComfort  
Time TempWeatherWind HumidityBarometerVisibility
11:30 PM
Thu, Jun 30
66 °FClear.6 mph78%30.04 "Hg10 mi
11:00 PM66 °FClear.3 mph78%30.04 "Hg10 mi
10:30 PM68 °FClear.5 mph73%30.04 "HgN/A
10:00 PM70 °FHaze.3 mph64%30.01 "Hg2 mi
9:30 PM72 °FSunny.8 mph61%30.01 "Hg10 mi
9:00 PM73 °FSunny.10 mph57%30.01 "Hg10 mi
8:30 PM75 °FSunny.9 mph57%29.98 "Hg10 mi
8:00 PM73 °FSunny.6 mph61%29.98 "Hg10 mi
7:30 PM73 °FSunny.7 mph61%29.98 "Hg10 mi
7:00 PM73 °FSunny.7 mph61%29.98 "Hg10 mi
6:30 PM75 °FMore clouds than sun.8 mph57%29.98 "HgN/A
6:00 PM77 °FSunny.2 mph57%29.95 "Hg10 mi
5:30 PM77 °FSunny.1 mph54%29.98 "Hg10 mi
5:00 PM79 °FSunny.3 mph51%29.98 "Hg10 mi
4:30 PM77 °FPassing clouds.3 mph57%29.98 "HgN/A
4:00 PM75 °FSunny.5 mph61%29.98 "Hg10 mi
3:30 PM75 °FMostly cloudy.6 mph61%29.98 "HgN/A
3:00 PM77 °FPartly sunny.7 mph54%29.98 "HgN/A
2:30 PM75 °FBroken clouds.9 mph57%29.98 "HgN/A
2:00 PM75 °FBroken clouds.6 mph61%29.98 "HgN/A
1:30 PM73 °FPartly sunny.9 mph65%29.98 "HgN/A
1:00 PM75 °FBroken clouds.8 mph65%29.98 "HgN/A
12:30 PM72 °FBroken clouds.7 mph69%30.01 "HgN/A
12:00 PM72 °FPartly sunny.9 mph69%30.01 "HgN/A
11:30 AM72 °FBroken clouds.9 mph65%30.01 "HgN/A
11:00 AM72 °FPartly sunny.10 mph69%29.98 "HgN/A
10:30 AM70 °FPartly sunny.10 mph69%30.01 "HgN/A
10:00 AM70 °FBroken clouds.9 mph73%30.01 "HgN/A
9:30 AM68 °FMostly cloudy.10 mph78%30.01 "HgN/A
9:00 AM66 °FPartly sunny.9 mph88%30.01 "HgN/A
8:30 AM66 °FCloudy.7 mph88%29.98 "HgN/A
8:00 AM64 °FPartly sunny.8 mph94%29.98 "HgN/A
7:30 AM64 °FPassing clouds.8 mph94%29.98 "HgN/A
7:00 AM64 °FMostly cloudy.6 mph94%29.98 "HgN/A
6:30 AM63 °FClear.7 mph94%29.98 "Hg10 mi
6:00 AM63 °FClear.7 mph94%29.98 "Hg10 mi
5:30 AM64 °FClear.6 mph88%29.98 "Hg10 mi
5:00 AM64 °FLight rain. Mostly cloudy.7 mph88%29.95 "HgN/A
4:30 AM64 °FOvercast.1 mph88%29.95 "HgN/A
4:00 AM64 °FPartly cloudy.2 mph88%29.95 "HgN/A
3:30 AM64 °FOvercast.5 mph88%29.95 "HgN/A
3:00 AM64 °FClear.3 mph83%29.95 "Hg10 mi
2:30 AM64 °FMild.5 mph88%29.95 "HgN/A
2:00 AM64 °FMostly cloudy.5 mph88%29.92 "HgN/A
1:30 AM64 °FClear.3 mph83%29.92 "Hg10 mi
1:00 AM64 °FClear.3 mph83%29.92 "Hg10 mi
Weather by CustomWeather, © 2016

See weather overviewHow to use our weather pages